Wind_Speed
32 32 30 30 30 30 29 29 29 29 29 28 26 26 25 25 26 28 26 24 23 21 19 18 19 20 20 19 18 16 16 19 21 21 22 22 21 21 21 21 22 23 23 23 22 22 23 22 20 18 17 17 17 16 16 16 16 16 15 16 17 14 14 16 12 8 9 10 11 13 13 13 17 19 17 14 12 11 12 12 13 16 18 17 11
32 32 30 29 30 29 29 29 29 29 28 26 25 25 24 25 27 28 27 25 23 21 20 20 20 21 21 19 17 17 19 21 22 22 22 22 22 22 21 22 23 23 23 23 22 22 22 21 20 18 17 17 17 16 16 16 16 17 16 15 15 13 12 12 10 7 9 10 12 13 13 14 18 20 18 16 14 13 13 13 14 17 18 17 13
32 32 31 30 29 28 28 29 29 28 28 26 25 25 25 26 28 29 27 25 23 21 21 21 22 22 21 19 18 20 21 22 21 21 22 22 23 22 22 23 23 23 23 22 22 21 21 20 19 19 18 18 17 16 15 14 14 15 15 13 13 12 10 9 7 8 9 10 12 13 13 15 18 20 19 17 16 16 16 16 15 16 18 17 15
32 32 31 30 29 28 29 29 30 29 28 26 25 25 27 28 29 29 28 26 24 22 21 21 22 22 21 20 21 22 22 22 21 21 21 22 23 23 22 22 22 22 22 22 21 20 20 20 18 17 17 17 17 15 14 13 12 13 13 12 12 12 10 8 8 10 11 11 12 13 13 14 18 20 19 18 17 17 18 18 17 17 18 16 15
33 32 31 30 29 29 29 29 30 29 28 26 25 26 28 29 30 29 28 26 24 23 22 22 23 23 22 22 22 23 23 23 22 21 21 21 22 23 23 21 21 21 21 21 20 20 19 19 18 17 17 17 16 14 13 12 11 12 12 11 11 11 10 11 11 12 12 12 12 12 12 13 16 19 21 20 19 19 19 18 19 19 19 17 17
32 31 30 30 30 30 30 30 31 30 28 26 26 28 30 30 30 29 28 27 25 23 23 23 23 23 23 22 22 23 24 23 23 22 22 22 23 23 22 21 20 20 20 20 20 19 19 18 18 16 16 16 16 14 12 11 11 11 11 10 9 9 10 12 13 12 12 12 12 11 12 14 15 17 19 20 21 21 21 19 19 20 20 19 19
32 31 31 31 30 31 32 32 32 30 28 26 27 29 31 31 30 29 28 27 25 24 24 24 24 23 23 23 23 24 24 24 23 23 23 23 24 24 23 22 21 20 21 21 20 19 18 18 17 16 15 15 15 14 13 12 12 12 11 9 8 9 11 12 11 11 11 11 11 11 11 13 14 14 16 18 20 21 22 21 21 20 20 19 19
32 32 32 31 31 32 33 32 31 29 27 27 27 30 31 31 30 29 28 26 25 25 25 25 24 23 23 24 24 24 24 24 24 25 24 25 25 24 24 24 23 22 21 21 20 19 17 17 16 15 14 13 13 13 13 14 15 15 13 11 11 10 10 10 10 9 10 10 11 10 10 11 12 13 15 17 19 20 20 20 21 21 21 19 17
33 32 32 31 31 32 33 31 30 29 28 27 29 30 32 31 30 29 28 27 26 26 25 24 24 24 25 25 25 25 25 25 26 26 25 26 25 25 25 25 24 24 23 21 20 18 18 16 15 15 14 13 13 14 15 15 16 18 16 14 13 13 11 10 9 8 9 9 9 8 9 10 11 12 13 15 16 17 18 19 20 20 22 20 17
32 32 31 31 32 32 32 31 30 29 28 28 30 31 32 32 31 30 28 27 26 26 25 24 24 25 26 26 26 25 25 26 26 26 25 26 26 26 26 26 25 25 24 22 21 19 17 16 15 15 14 13 14 15 16 16 16 17 16 15 15 14 12 10 9 8 8 8 7 6 7 8 10 11 11 13 14 15 17 19 19 20 22 21 18
32 32 31 31 32 33 32 31 30 30 30 29 31 32 32 32 31 30 29 28 27 26 25 25 25 25 26 27 26 25 25 26 26 25 25 26 26 27 27 27 26 25 24 23 22 20 18 17 17 17 16 15 16 17 17 16 15 15 15 13 13 12 12 11 10 9 8 7 5 4 5 8 10 11 11 13 15 15 16 17 18 19 20 18 14
31 32 31 31 32 33 32 31 31 30 30 30 31 32 31 31 31 31 30 29 28 27 26 25 25 25 26 27 26 25 25 25 25 24 25 25 26 27 27 26 25 24 23 23 22 21 20 19 18 18 18 18 18 18 17 15 13 12 12 10 9 8 9 10 9 8 6 5 3 3 5 8 11 12 13 15 15 14 15 16 16 18 18 17 15
31 31 31 32 33 33 33 32 31 31 30 30 31 32 31 31 31 31 30 29 29 28 27 26 26 26 27 27 26 25 24 25 25 25 25 25 25 26 26 25 25 24 23 22 21 21 21 20 21 21 20 19 19 18 16 14 12 10 9 7 5 4 4 5 6 6 4 4 4 5 6 9 12 13 14 14 13 12 13 15 15 16 17 17 17
31 31 32 32 33 33 33 32 31 30 30 30 31 32 32 32 32 32 31 30 30 30 28 27 27 27 27 27 26 25 25 25 25 24 24 24 24 25 25 24 24 23 22 21 21 21 22 22 23 23 22 21 19 18 16 13 11 9 7 6 3 1 3 2 2 2 2 3 4 6 7 10 12 13 12 10 10 10 11 12 13 15 16 17 18
29 30 30 31 33 33 33 32 31 30 30 31 31 32 32 33 33 33 32 31 31 31 30 29 28 27 27 27 26 25 25 24 24 25 24 23 24 24 24 24 23 22 21 20 20 21 22 23 24 24 23 22 19 17 15 12 9 8 6 5 3 2 4 5 3 1 2 2 3 5 7 10 12 11 7 6 7 8 8 9 11 13 16 18 19
29 29 29 30 32 33 33 32 31 31 31 31 31 31 32 33 34 33 32 32 31 31 30 30 28 28 27 26 26 25 25 24 24 25 24 24 24 24 23 23 22 21 20 18 17 20 22 22 22 22 22 21 18 16 14 10 9 8 5 4 4 4 5 6 4 2 2 2 3 6 8 10 11 7 3 4 6 7 6 7 10 13 16 18 19
29 30 29 30 32 34 34 33 31 31 31 31 31 31 32 34 34 34 33 32 31 31 30 29 28 28 27 27 27 26 25 25 25 25 25 24 25 24 24 23 22 21 19 16 16 20 21 21 21 20 20 19 16 14 13 11 10 7 4 4 4 5 6 6 3 2 1 2 4 6 8 8 7 3 1 3 6 7 6 7 9 11 13 14 14
30 31 30 32 33 33 34 33 32 31 31 32 32 32 33 34 34 34 33 33 32 31 30 28 28 28 28 28 28 27 27 26 26 25 25 25 25 25 24 24 23 21 18 15 17 19 19 18 18 18 18 17 15 13 12 12 10 8 5 5 5 6 6 4 1 2 3 3 3 3 3 4 2 0 2 3 4 6 8 8 10 11 13 12 12
32 32 32 33 34 34 33 33 33 33 33 33 33 33 32 33 33 33 33 32 32 30 29 28 27 27 27 27 27 27 27 26 26 25 24 25 25 25 25 25 24 21 18 18 19 19 18 18 17 16 15 15 14 13 13 13 12 9 7 6 5 5 5 2 1 2 4 3 2 1 1 2 2 1 3 5 3 6 9 10 11 12 13 14 15
33 34 34 34 34 33 33 33 33 33 33 32 31 30 30 30 31 31 31 31 31 29 28 27 26 26 26 26 27 27 26 26 27 26 25 25 25 26 27 27 26 24 22 22 22 22 22 21 19 16 14 13 14 14 14 14 14 12 10 8 7 6 4 3 2 3 3 2 1 2 4 4 3 3 3 5 4 7 11 11 10 10 11 14 16
33 34 34 34 33 33 33 33 33 33 33 31 28 28 29 30 31 31 30 30 30 28 26 25 25 24 25 26 26 26 26 27 28 26 25 26 26 27 28 29 28 26 25 24 25 24 24 23 21 19 16 13 14 15 15 15 15 14 12 10 8 6 5 3 3 4 3 2 3 4 5 4 4 3 3 5 6 10 12 9 7 8 11 13 15
33 34 33 33 33 33 33 33 32 32 31 30 28 27 28 29 31 31 30 30 29 27 26 26 25 25 25 25 26 25 26 27 27 24 24 26 26 26 28 28 28 28 26 26 26 25 23 21 20 20 17 15 14 14 14 15 16 15 14 11 9 7 5 4 5 5 4 4 4 5 5 4 4 3 3 5 9 11 9 7 7 8 10 12 15
33 33 32 31 32 32 32 32 31 31 30 30 28 27 27 28 29 29 29 29 28 27 27 26 25 24 25 25 25 26 27 28 25 21 22 25 25 25 25 25 27 28 26 26 28 26 23 21 20 19 18 18 17 15 14 15 15 15 14 12 10 8 6 6 6 6 5 5 5 4 4 2 3 2 3 6 10 10 7 8 10 9 9 11 14
32 31 31 31 31 31 31 31 30 30 30 29 28 26 27 27 27 28 29 29 29 28 27 26 26 25 25 26 26 26 27 26 22 19 21 25 25 23 22 22 24 26 25 25 25 24 22 21 20 19 18 18 19 18 15 13 12 13 14 12 10 9 8 7 7 7 7 6 6 5 4 2 1 2 4 6 9 9 8 9 10 9 10 12 13
31 30 30 30 31 31 30 29 28 28 29 30 28 27 27 27 27 27 28 29 29 27 26 26 26 26 25 26 26 26 26 24 21 20 22 25 25 22 20 19 21 22 24 25 25 23 22 22 21 20 18 18 19 19 18 15 13 13 13 12 11 10 10 9 9 9 9 8 7 7 6 4 3 4 6 7 8 8 9 10 9 9 11 13 12
30 29 29 29 30 29 28 27 26 27 28 29 29 28 28 29 29 29 29 29 28 27 26 26 24 23 24 25 26 27 26 24 21 20 22 25 26 24 21 19 19 19 20 22 23 23 22 22 21 21 20 19 20 20 19 16 14 13 13 13 13 12 11 11 10 11 11 11 9 9 8 7 6 6 7 8 9 9 9 11 12 12 13 14 14
29 28 27 27 27 27 27 27 26 26 27 28 28 28 29 29 30 31 31 30 28 28 28 27 25 24 24 24 24 26 26 24 22 22 23 26 27 27 24 21 19 18 18 17 18 19 19 20 20 21 21 20 19 18 17 14 13 13 14 14 14 14 13 12 12 12 13 13 13 12 10 9 8 9 10 10 10 10 10 12 14 15 15 15 17
28 27 26 26 25 26 27 28 27 27 27 28 29 30 30 31 32 33 34 34 33 31 30 29 29 28 26 24 23 23 24 24 24 24 24 25 28 30 29 25 21 19 17 16 14 13 14 16 18 18 18 17 16 14 13 12 12 12 13 14 14 14 14 14 14 14 15 15 15 15 14 13 13 13 13 12 11 11 11 13 16 17 16 16 17
26 26 25 25 24 24 26 27 27 28 28 28 28 30 31 33 34 34 35 35 35 33 31 30 30 29 28 26 24 24 24 25 25 24 23 22 25 30 32 31 27 22 17 14 12 10 10 11 13 15 15 15 14 13 12 12 12 12 13 13 14 15 16 17 17 17 17 18 18 18 17 17 16 16 15 14 13 12 12 14 16 16 16 17 18
24 23 23 23 23 23 25 26 26 27 28 28 27 27 28 30 31 32 33 33 33 32 30 28 27 27 27 27 26 24 22 21 22 21 20 19 21 27 33 34 31 24 19 16 13 12 12 13 14 15 16 16 15 15 14 13 13 14 14 13 14 16 18 19 19 18 19 20 20 19 18 18 17 16 16 15 13 12 13 14 15 16 16 17 18
23 22 23 23 24 25 25 26 26 26 27 27 27 26 25 25 26 27 28 28 29 29 28 25 22 22 23 23 23 23 20 18 17 18 18 18 18 22 29 32 31 27 22 18 17 16 15 15 15 16 16 16 15 15 14 13 13 14 14 13 14 16 19 20 20 20 20 21 21 20 18 17 16 16 16 15 13 13 13 15 15 16 16 16 17
25 23 23 24 25 26 26 26 26 25 25 25 26 27 26 24 22 21 21 22 24 25 24 22 20 18 18 19 19 19 18 18 17 17 17 16 16 19 25 29 31 29 25 21 20 20 19 18 18 18 17 16 15 15 14 13 13 15 14 13 14 16 18 19 20 20 21 22 22 21 20 18 17 17 16 15 13 13 14 16 16 16 15 15 15
23 23 23 24 25 25 25 26 26 25 25 26 26 27 27 26 23 21 18 19 20 19 18 18 18 17 17 17 17 16 16 17 18 17 17 16 15 16 20 24 28 29 26 23 23 23 21 21 21 19 18 18 17 17 16 15 15 17 16 15 16 17 19 20 21 22 22 23 23 23 21 20 20 19 18 16 14 13 15 17 17 15 13 13 13
22 23 24 25 26 25 24 25 26 24 24 26 27 27 26 26 24 23 20 18 17 17 17 17 18 18 18 19 18 17 17 18 19 18 18 17 15 13 16 21 25 26 25 25 25 24 23 22 22 21 20 20 19 19 18 17 17 18 17 16 16 18 19 21 23 24 23 22 21 20 20 21 23 22 19 16 13 13 15 16 15 13 12 12 13
23 24 25 26 26 25 24 24 25 24 24 25 26 26 25 24 24 25 24 23 21 20 18 18 19 20 21 22 21 20 20 20 20 19 19 19 16 14 16 21 23 23 24 26 27 26 25 25 25 25 24 24 24 23 21 19 18 17 16 15 16 20 20 20 22 22 19 16 15 15 17 20 21 18 14 12 11 13 14 13 11 10 11 11 12
23 24 24 25 26 25 25 25 25 25 25 25 25 24 23 23 23 22 22 21 20 18 17 17 18 18 19 20 21 21 20 20 19 19 20 21 19 18 19 23 25 26 27 28 29 29 28 28 28 28 27 26 26 24 22 20 18 16 15 15 18 22 20 16 16 17 15 13 12 12 13 14 14 11 9 9 11 11 10 9 8 9 10 10 9
22 23 24 25 26 26 25 24 24 25 24 24 23 22 21 20 20 18 16 16 16 17 17 17 16 15 16 16 18 19 18 17 17 19 22 24 22 20 21 23 25 27 28 29 29 29 29 29 28 27 25 24 22 20 19 19 17 16 16 16 19 21 16 12 12 13 12 10 8 7 6 6 6 6 7 8 8 7 7 8 9 9 9 9 8
22 23 24 25 25 24 23 23 23 23 22 22 22 21 20 19 19 18 18 18 19 21 21 19 17 17 17 16 17 16 16 16 19 23 26 27 25 23 23 23 25 26 27 28 28 28 28 27 26 24 22 20 18 17 17 18 19 19 17 17 19 17 10 7 7 7 5 4 3 2 2 3 4 5 6 6 7 7 8 9 9 9 8 8 8
22 22 23 24 25 24 23 22 22 22 21 21 22 22 21 21 22 22 21 22 23 24 23 21 20 20 19 18 18 16 15 16 19 23 26 27 27 26 24 24 24 25 26 26 26 26 26 24 22 20 18 17 17 17 18 19 20 19 18 17 17 10 3 3 3 4 4 2 1 1 3 4 5 6 6 6 7 8 8 8 8 8 8 8 8
21 21 21 23 24 24 24 23 23 23 23 24 25 25 24 25 25 25 25 25 25 25 24 23 23 22 21 20 19 18 17 18 18 20 22 24 25 26 25 24 25 25 25 25 24 24 22 19 17 16 16 16 16 17 18 18 17 16 15 14 10 4 4 3 2 3 1 1 3 3 4 4 4 5 6 6 7 7 7 7 7 7 7 7 8
18 18 19 20 21 22 23 23 25 26 26 26 26 26 26 26 27 27 27 26 26 25 24 24 24 23 21 20 18 18 17 17 17 18 19 21 23 25 25 25 25 24 23 22 22 20 18 16 14 13 13 12 12 12 12 11 10 9 8 7 6 5 4 2 1 0 2 3 3 4 4 4 5 6 6 7 7 7 7 6 6 6 6 7 8
17 17 18 20 21 21 22 23 23 24 25 25 25 26 26 26 27 27 28 27 26 26 25 24 22 22 21 19 18 17 17 16 16 18 19 20 22 23 24 25 24 22 21 20 19 17 15 13 10 8 6 6 6 6 4 2 4 5 7 8 7 5 3 1 0 2 3 3 3 4 4 5 6 7 7 7 7 7 6 6 6 6 7 7 8
16 17 18 19 20 21 21 22 21 22 23 24 24 25 26 26 27 27 27 26 26 26 25 23 22 22 21 19 18 18 17 16 16 18 19 20 21 21 22 22 21 20 19 19 17 15 13 9 7 5 4 4 5 4 3 1 4 7 8 8 6 4 2 1 2 3 3 4 4 5 5 6 7 7 7 6 6 6 6 6 6 6 7 8 9
17 18 19 19 20 19 19 20 21 22 23 23 23 23 24 24 25 25 25 25 25 25 25 24 23 22 21 20 20 20 19 18 17 18 19 19 19 18 18 18 18 17 17 15 14 13 12 10 9 8 7 6 5 4 3 2 3 5 5 5 4 3 2 3 4 4 5 5 6 6 6 7 7 6 6 5 5 5 5 5 6 7 8 9 9
17 19 20 20 20 20 20 20 21 22 22 22 21 22 22 23 23 24 24 25 25 25 24 23 22 21 21 21 21 21 21 20 19 18 18 18 17 16 16 16 15 14 12 9 8 9 10 10 11 10 9 6 6 6 5 4 5 5 5 4 4 4 4 5 5 6 6 7 7 7 6 6 5 5 4 4 4 4 4 5 6 7 8 8 9
17 19 20 20 20 20 20 20 20 20 21 21 21 21 21 22 22 23 23 24 24 23 22 21 20 20 19 19 20 20 21 21 20 19 17 16 15 14 13 13 13 12 10 8 8 8 9 9 10 9 8 8 8 7 6 6 6 6 5 4 4 4 5 5 6 6 7 7 7 6 5 4 4 3 3 3 3 3 4 6 6 7 7 7 8
18 19 20 20 19 19 19 19 19 19 19 20 20 20 20 20 21 21 22 23 22 21 20 19 18 18 17 17 17 17 18 18 18 17 14 13 11 10 10 11 12 12 11 9 8 7 8 8 8 8 9 9 9 8 7 7 6 5 5 4 4 5 5 5 6 6 7 7 6 5 4 3 2 1 1 2 3 4 5 6 6 6 7 7 8
19 20 20 19 18 18 18 18 19 19 19 19 19 20 20 20 20 20 21 22 21 20 19 18 17 16 16 15 14 14 14 14 14 13 12 10 8 7 8 10 11 11 10 8 8 8 7 6 7 8 9 10 10 9 8 7 6 6 5 5 5 5 5 6 6 6 5 5 4 3 3 2 1 0 1 3 4 4 5 6 6 6 7 7 9
19 20 20 19 19 19 19 19 20 20 20 20 20 20 20 20 20 21 21 21 20 19 19 18 17 16 15 14 14 13 12 12 13 13 11 9 8 8 9 9 10 9 9 9 9 8 7 7 9 10 10 11 10 9 8 7 6 6 6 5 5 5 5 5 4 4 3 3 3 2 2 1 1 2 2 3 4 4 5 6 6 7 7 8 9
18 19 20 20 20 20 20 20 20 21 21 20 21 21 21 20 21 21 21 21 20 19 18 18 17 17 15 14 13 12 11 12 14 14 11 9 9 10 10 10 10 10 10 9 9 8 9 10 11 11 11 11 10 9 8 7 6 6 6 5 5 4 4 3 2 2 2 2 2 1 1 2 2 2 3 3 4 4 5 6 6 7 9 9 9
17 18 19 20 20 20 20 20 21 21 21 21 22 22 22 22 22 22 21 20 20 20 19 17 17 16 15 13 11 10 11 14 16 14 11 10 11 11 11 11 11 11 11 10 10 10 11 11 12 12 11 11 10 9 8 7 6 5 5 4 3 2 2 2 2 2 2 2 1 1 2 2 2 3 4 4 4 4 5 6 7 8 9 8 8
Wind_Direction
179 179 181 183 184 185 186 187 186 186 187 189 190 190 192 192 191 190 189 188 189 188 188 187 185 184 182 179 178 177 175 172 170 167 161 156 154 152 151 152 148 143 142 140 137 135 130 125 122 123 124 117 110 106 104 111 116 114 113 111 105 104 107 104 102 98 88 84 75 54 37 29 30 33 41 53 59 56 55 55 46 40 37 35 31
179 178 178 179 181 182 183 184 186 187 187 189 190 190 191 191 190 189 188 188 189 189 186 184 185 185 181 180 181 179 176 173 171 168 162 157 155 153 154 154 150 146 144 141 139 137 132 128 126 127 128 122 116 114 111 114 118 114 109 107 103 99 101 103 101 101 93 80 68 53 38 33 36 39 43 49 52 51 51 51 45 38 36 31 25
178 178 178 179 179 178 179 182 184 186 187 188 190 190 190 190 189 189 188 187 187 188 185 183 185 184 182 182 180 178 176 173 171 169 165 160 157 156 158 157 154 151 148 145 143 141 137 133 132 133 132 126 122 122 121 118 118 116 110 105 102 99 101 106 105 108 102 83 64 52 44 43 42 41 45 52 54 52 50 48 45 39 35 29 24
177 178 179 180 179 177 176 179 182 183 184 186 189 190 189 187 187 188 187 185 184 184 184 184 185 184 182 181 179 178 177 174 172 172 168 165 161 160 161 162 161 159 154 150 147 146 143 140 140 142 140 133 128 129 129 123 121 121 117 110 104 99 97 100 108 114 110 90 66 53 51 52 47 41 42 48 53 53 50 47 44 40 37 32 27
176 178 179 180 180 178 177 178 180 181 183 185 188 189 187 185 185 186 185 184 183 182 184 186 187 185 183 181 180 180 179 176 174 172 170 168 166 164 165 165 165 163 159 155 153 153 151 148 148 152 151 143 139 139 137 132 128 126 121 114 108 102 97 99 106 106 98 83 66 51 52 56 51 43 39 40 44 46 48 48 43 38 38 35 31
176 178 179 179 179 178 178 179 179 180 184 186 187 187 185 183 184 185 185 184 183 183 186 188 188 186 185 185 183 182 180 178 176 173 171 170 168 166 166 165 165 163 160 159 158 159 158 155 155 159 159 152 148 149 148 142 136 131 126 119 114 113 106 103 104 98 86 74 59 47 50 51 45 41 38 37 38 37 37 39 40 37 35 31 27
176 177 178 178 176 176 178 179 179 181 185 188 188 187 185 183 183 184 185 185 184 186 188 188 189 189 188 187 185 183 181 179 178 176 173 172 170 168 167 166 164 163 162 162 161 162 161 160 161 163 161 154 148 148 148 143 133 126 121 114 111 114 113 108 103 94 84 71 57 50 51 45 37 35 32 34 39 36 29 27 27 28 29 27 21
176 176 176 176 175 175 178 179 179 181 186 189 189 187 185 184 184 184 185 187 187 188 187 186 187 189 190 188 186 184 182 181 180 179 176 175 174 171 169 169 165 163 165 165 163 164 163 162 163 164 160 149 142 141 140 136 127 116 108 103 97 98 106 108 103 93 84 74 64 55 47 40 33 28 24 26 30 28 22 19 16 14 17 22 21
175 175 175 175 175 175 176 178 180 182 186 188 189 187 184 183 184 185 186 188 188 187 185 184 186 188 189 188 187 186 186 185 183 182 179 177 176 174 172 171 168 166 166 166 166 166 165 165 167 169 164 152 144 140 135 134 129 118 110 103 94 88 92 100 101 97 89 80 73 59 42 32 22 16 16 17 16 14 13 14 13 10 10 16 24
173 173 174 175 175 175 175 177 180 183 186 188 188 186 185 184 185 186 186 187 186 185 184 186 189 189 188 188 188 188 189 188 186 185 183 180 178 176 174 172 171 171 169 168 168 169 170 172 174 175 172 161 149 142 135 133 129 121 113 103 94 88 89 95 101 102 99 92 80 58 35 22 14 9 7 8 9 9 9 9 8 7 6 10 19
171 173 174 174 173 173 174 176 179 182 185 187 187 185 185 185 185 186 186 185 185 184 186 188 191 191 190 189 189 190 191 190 189 188 186 184 181 178 176 175 174 176 176 173 173 175 178 179 178 177 174 164 152 145 140 135 129 121 113 103 94 88 86 93 105 109 108 107 92 57 22 8 8 8 4 3 6 7 7 6 4 3 2 359 355
171 172 173 172 171 171 172 175 177 180 183 185 185 184 184 184 184 185 184 184 185 186 188 191 192 192 191 191 192 193 193 192 191 190 188 186 185 183 180 178 178 181 183 182 182 183 183 180 175 173 171 164 157 151 146 140 131 122 114 107 102 94 85 88 101 110 109 100 76 42 14 357 355 357 355 354 357 2 7 10 7 1 357 349 339
170 171 171 171 170 170 171 173 176 179 182 183 183 183 183 183 183 184 185 186 187 188 190 192 192 192 192 194 194 195 195 194 192 191 190 188 188 187 185 184 184 186 189 190 191 189 184 176 169 166 166 164 161 158 154 147 140 133 124 118 113 113 105 89 90 99 97 67 24 7 1 347 342 346 347 345 347 354 4 10 9 1 355 349 345
169 169 170 170 169 169 171 173 176 178 180 181 181 182 183 183 184 185 186 187 188 190 191 192 193 194 195 195 195 196 195 193 192 192 191 190 191 192 191 189 190 192 195 196 196 192 184 175 169 166 166 168 168 167 163 155 150 147 139 130 121 166 199 174 105 81 64 32 356 351 352 343 341 344 345 344 343 347 360 9 9 1 356 353 352
167 166 168 169 169 170 171 173 175 177 178 180 181 183 184 184 185 186 187 188 189 191 192 193 193 194 195 195 195 196 195 192 193 194 193 193 194 196 195 193 193 196 198 199 200 194 185 177 174 173 172 174 175 175 171 165 162 162 151 141 151 202 206 195 192 270 342 338 330 342 344 342 341 340 343 355 352 348 360 10 9 360 356 357 358
167 166 167 168 169 171 172 173 174 176 178 180 181 183 185 185 186 187 188 189 190 192 193 194 193 192 193 195 195 194 193 192 193 195 195 195 196 197 196 195 196 198 198 199 200 195 186 182 181 181 180 180 181 182 181 178 180 179 165 152 165 183 184 181 193 241 288 293 317 335 335 336 337 332 346 25 2 347 348 1 8 3 355 353 353
167 167 168 170 172 173 174 174 175 176 179 182 183 185 187 187 187 187 187 188 191 194 194 194 194 193 192 194 195 193 191 192 193 196 197 196 196 197 198 196 197 199 197 197 201 196 191 189 190 189 189 187 188 191 189 185 188 191 184 164 162 169 171 168 177 218 222 258 310 327 331 333 334 326 44 37 360 341 335 342 355 354 346 344 340
166 167 170 172 174 175 177 177 177 178 181 184 186 187 188 188 188 187 187 188 191 194 195 195 195 195 194 195 196 194 191 191 193 197 198 198 198 198 198 197 197 196 192 192 198 198 197 201 205 205 202 199 199 198 193 189 193 200 196 178 160 159 165 162 163 207 206 244 297 319 336 341 336 356 42 25 347 335 336 335 336 332 329 330 328
167 170 173 175 177 178 179 179 179 182 185 188 189 189 188 188 188 187 187 188 190 192 194 195 194 195 196 197 197 196 194 192 193 195 198 200 200 199 199 198 194 190 189 190 192 197 205 212 216 215 209 206 206 203 195 194 199 203 201 193 179 172 181 217 273 205 198 224 281 298 345 328 246 198 23 14 341 332 341 339 333 324 318 323 329
171 174 176 177 179 180 180 181 184 186 189 190 190 189 188 187 186 186 187 188 188 189 192 194 195 195 196 197 197 197 197 193 191 193 197 200 202 202 201 199 193 189 192 196 196 201 209 212 213 213 210 208 209 205 200 200 205 208 209 213 214 211 225 259 240 197 200 237 283 292 317 315 234 213 1 4 340 333 342 342 334 327 321 322 329
173 176 178 178 180 181 182 185 188 189 190 191 189 188 188 187 185 186 186 186 185 184 187 193 196 195 195 196 196 198 200 198 196 197 200 203 206 206 203 203 200 195 193 197 202 206 209 209 207 207 210 213 213 209 205 205 211 217 222 229 234 238 247 248 212 199 218 261 291 298 308 300 238 240 327 348 336 335 342 343 335 334 333 329 331
175 176 177 178 179 182 185 187 189 189 189 189 188 187 187 186 185 186 185 183 180 180 184 192 195 193 193 194 196 199 202 203 203 204 203 205 208 209 207 207 206 200 195 198 204 206 205 204 203 205 212 220 221 217 212 212 216 223 230 238 244 247 248 236 215 208 228 267 298 312 311 284 247 260 316 333 332 336 345 349 337 330 328 329 335
175 175 175 177 180 183 186 188 188 188 188 188 187 186 185 185 184 184 183 180 178 179 185 190 191 189 189 193 198 202 203 204 208 212 210 208 208 210 211 210 206 203 201 203 206 208 209 210 211 215 222 228 229 226 222 219 220 226 233 240 244 245 246 238 224 224 245 270 290 316 328 300 259 285 328 330 330 335 344 345 338 328 320 325 336
173 173 174 176 180 184 187 188 187 186 187 187 185 184 184 184 183 184 183 180 179 181 185 188 188 189 191 194 199 202 202 204 211 217 215 212 210 211 213 211 208 206 206 209 213 215 218 221 225 229 233 234 233 231 229 227 228 231 235 240 242 241 242 241 235 237 251 264 273 292 317 321 273 301 324 323 323 328 337 341 337 331 325 325 332
171 172 173 177 179 182 185 185 185 186 186 186 185 183 182 182 182 183 184 183 182 182 184 187 189 191 193 196 198 200 203 207 211 213 214 214 212 210 210 209 209 209 211 216 223 225 226 229 232 234 236 236 233 231 232 234 236 235 236 240 242 242 244 243 240 242 250 258 266 278 290 292 284 300 311 308 309 316 327 333 332 330 329 325 327
170 171 173 177 179 180 180 180 183 185 186 186 187 186 184 183 181 182 183 185 185 186 186 187 191 194 197 199 201 201 203 208 212 212 213 214 212 209 206 203 203 204 206 213 222 228 231 233 234 235 238 238 235 233 234 237 240 239 238 239 241 244 247 247 245 245 249 256 265 275 283 288 285 291 297 299 303 310 314 318 321 322 326 326 323
169 169 171 175 177 177 177 177 180 183 184 186 188 188 188 186 184 183 186 187 187 189 190 190 194 199 201 202 203 203 204 208 211 212 213 213 212 211 208 202 197 196 199 204 214 224 230 231 231 234 237 235 233 233 235 238 242 242 242 244 246 248 251 251 251 249 249 255 262 268 274 278 277 281 288 294 303 310 308 308 311 312 318 324 321
166 166 169 173 174 176 177 178 178 180 183 186 187 187 188 189 189 191 193 192 190 190 191 194 199 203 203 201 200 200 203 209 213 215 215 214 213 211 210 207 202 199 199 203 208 218 225 224 223 225 225 221 221 225 230 235 240 244 247 251 253 255 256 256 255 251 248 252 259 265 270 272 272 274 278 283 291 303 308 308 308 309 314 320 320
164 165 168 171 173 176 178 180 180 181 183 185 188 190 191 193 196 199 201 201 201 201 201 203 206 208 208 206 202 199 202 213 221 223 222 221 220 216 213 211 210 204 199 199 202 201 200 199 198 196 195 197 203 210 218 228 239 247 251 255 259 259 257 255 254 251 248 250 257 264 269 272 271 268 267 271 282 295 304 305 305 306 311 315 316
162 164 168 170 173 176 179 181 182 182 182 183 185 188 192 197 200 203 205 207 209 210 212 215 216 216 215 215 216 217 222 230 234 232 230 231 229 224 219 216 214 209 200 196 197 191 182 178 178 180 183 190 200 210 218 228 241 250 252 254 256 256 255 255 253 251 250 250 252 257 262 267 267 260 257 263 276 289 296 298 299 303 309 313 316
164 167 171 174 177 180 181 182 183 183 183 183 183 185 188 194 200 205 209 210 210 212 216 219 222 226 226 225 226 229 236 245 247 243 239 235 230 227 224 221 219 215 208 203 202 198 191 188 188 191 196 202 211 220 228 236 248 256 258 257 255 255 256 257 253 251 252 252 252 253 255 257 255 250 249 257 272 284 288 291 296 304 314 321 324
169 170 174 178 182 184 184 184 183 182 181 181 183 184 186 189 194 201 207 209 210 213 217 218 223 231 235 233 230 228 232 240 245 248 244 235 230 230 228 225 223 219 214 210 209 206 204 203 203 203 206 211 218 226 234 241 249 255 260 263 263 261 258 255 252 253 255 256 254 252 249 248 248 248 250 257 269 280 285 288 294 305 318 327 330
173 174 178 182 185 185 185 185 184 183 181 180 182 186 189 189 189 191 194 200 205 209 211 216 225 230 231 232 233 232 233 236 237 239 238 233 228 228 228 228 227 223 216 211 211 211 211 213 213 214 215 219 224 231 237 244 251 257 263 270 272 270 265 262 262 263 263 261 259 254 249 248 251 252 253 258 268 277 282 287 295 306 318 326 329
186 189 191 190 188 186 186 186 185 184 183 184 185 189 192 194 192 186 182 185 193 197 201 213 226 230 230 231 232 232 234 235 233 233 232 228 224 222 222 223 224 222 219 216 215 214 214 216 219 222 225 228 233 237 242 249 256 262 268 275 280 282 277 270 268 269 267 264 261 257 252 251 253 254 256 262 271 278 282 289 299 312 322 327 329
192 193 194 192 189 187 188 188 187 186 187 189 190 192 196 198 196 193 189 188 187 186 193 208 220 223 224 227 229 231 234 235 232 230 227 222 217 211 211 213 214 214 216 218 219 221 221 222 225 230 234 238 240 241 244 250 257 265 272 280 292 298 291 276 268 267 263 257 255 257 258 257 256 257 261 269 276 282 288 296 308 320 328 330 331
188 189 189 190 191 191 192 191 190 191 192 193 193 195 198 198 196 194 193 189 181 178 187 202 212 214 216 218 221 225 228 229 228 226 221 218 213 207 206 210 211 210 212 216 220 225 228 232 236 240 242 244 244 245 248 250 256 268 276 283 297 305 300 280 262 254 247 244 248 253 256 257 256 258 268 280 285 289 297 309 319 325 330 334 337
190 191 190 190 193 194 194 194 193 195 196 195 193 194 196 195 191 186 183 177 172 178 192 203 206 207 209 211 214 216 218 220 221 218 213 212 213 214 214 213 212 211 213 216 221 226 231 237 241 243 245 246 249 253 253 252 259 273 278 284 300 309 301 274 249 240 238 241 245 242 239 247 258 273 288 298 302 306 314 324 327 328 333 337 340
195 196 194 193 194 195 194 193 194 195 195 194 194 194 193 188 186 185 182 178 180 190 199 203 203 204 205 205 205 206 206 207 208 208 208 209 212 215 217 216 214 214 216 220 223 228 233 238 241 244 247 251 254 257 255 257 268 279 282 289 301 306 293 256 235 224 215 210 204 204 236 274 295 312 319 319 319 321 324 328 329 332 336 339 343
197 198 197 197 198 198 197 195 192 191 190 192 195 196 193 188 186 186 185 185 190 198 201 201 202 205 205 202 201 202 202 203 205 206 209 212 213 214 215 215 215 217 220 224 227 232 238 243 247 250 252 253 256 260 263 269 276 278 279 287 295 291 247 176 164 162 159 167 206 280 310 317 322 324 322 322 326 330 333 333 332 334 340 343 349
194 196 198 199 200 200 199 197 193 190 191 193 196 196 195 193 190 189 190 192 196 201 202 202 205 208 207 206 208 210 210 210 210 211 212 213 212 212 213 215 216 219 223 228 233 239 245 249 252 254 256 260 264 271 275 276 273 270 270 274 271 231 166 151 153 161 176 296 313 318 321 322 324 325 326 333 338 337 334 333 333 337 344 349 352
193 196 200 201 200 199 198 197 197 195 195 196 196 196 196 196 194 193 195 198 201 203 205 207 210 211 210 211 214 216 215 214 214 215 214 212 209 209 211 214 218 222 227 234 240 246 250 253 254 257 262 269 279 286 282 269 258 253 247 231 205 178 170 181 197 290 337 340 336 332 332 334 337 340 340 340 339 334 330 332 336 340 345 350 352
194 199 201 200 199 199 198 198 199 198 197 197 198 198 199 199 196 195 198 202 204 206 206 208 210 211 210 211 212 212 212 215 217 215 212 209 208 209 212 216 220 226 234 241 246 250 253 253 252 253 259 273 293 312 318 261 192 181 178 178 179 182 192 187 69 347 344 342 332 328 332 333 332 334 333 331 329 329 332 338 343 345 350 355 357
197 203 203 200 198 199 200 199 199 200 201 201 201 202 203 202 199 199 200 203 206 207 207 207 208 208 207 207 207 206 209 215 218 215 212 210 210 213 219 223 228 234 243 249 253 253 247 236 224 225 250 270 277 292 324 70 146 158 166 175 183 191 201 247 326 325 323 322 318 317 323 325 324 324 323 322 324 328 334 342 348 353 358 3 6
198 201 202 200 199 201 203 202 203 204 204 203 202 203 203 201 199 199 200 203 208 210 209 206 205 205 205 204 203 205 210 216 219 218 217 216 217 224 230 233 236 241 247 252 253 245 233 223 222 241 263 269 249 239 244 214 175 173 180 196 215 233 268 302 311 312 313 314 316 319 322 321 319 316 316 322 329 334 341 350 357 1 5 11 18
195 196 197 196 197 200 202 203 205 205 203 201 202 203 202 200 198 197 200 205 210 210 207 205 204 205 206 206 206 209 215 220 223 224 225 227 231 236 238 236 237 238 238 238 239 235 232 234 240 248 254 245 221 215 218 213 205 207 217 235 255 276 296 304 305 308 311 313 316 319 317 314 312 313 319 331 337 340 353 5 10 14 19 26 34
196 196 196 195 195 197 200 201 203 203 200 199 200 200 199 198 198 198 201 207 209 206 202 202 204 207 209 210 211 215 220 223 226 229 232 234 237 240 238 233 230 229 228 234 241 237 230 228 228 228 224 214 208 212 222 226 227 231 237 250 269 284 293 296 298 303 307 309 312 314 310 309 317 322 330 344 349 2 20 26 27 34 41 45 45
198 197 198 198 197 197 198 199 201 200 199 199 200 200 198 197 197 198 201 205 206 203 200 200 203 208 211 213 215 219 223 225 227 229 229 230 232 234 230 224 224 229 237 242 233 211 199 201 204 202 202 205 213 224 233 236 238 244 249 260 272 281 288 292 295 300 303 304 308 311 307 307 317 318 335 10 18 27 36 41 47 52 54 50 40
197 196 198 199 199 198 197 197 197 197 197 198 200 200 198 197 195 196 199 202 201 199 197 198 203 208 211 213 216 220 224 226 225 220 215 214 216 215 212 214 221 229 230 220 200 189 188 195 196 196 201 211 222 230 235 237 244 253 258 263 270 278 285 291 295 300 304 306 310 310 299 291 282 90 30 32 39 44 51 60 64 57 49 40 30
196 195 196 198 201 201 199 197 196 197 197 197 197 196 195 194 193 195 197 198 198 198 199 201 203 204 206 209 215 221 224 220 210 201 199 203 208 208 209 214 217 215 205 196 193 195 196 196 196 200 208 217 224 230 235 242 248 251 252 257 267 276 285 291 295 301 303 300 292 281 272 289 44 56 51 53 65 68 65 66 60 45 34 28 25
197 196 196 197 199 201 201 198 196 196 195 194 193 191 189 189 191 193 193 193 194 196 198 199 198 200 204 210 216 220 217 202 190 189 195 204 207 207 209 208 202 194 192 194 199 200 198 200 204 209 214 220 225 230 235 239 242 243 249 260 269 274 279 281 277 274 266 257 256 265 332 24 43 67 80 83 82 76 67 60 46 31 26 28 32
198 197 196 196 196 196 196 194 193 193 192 192 191 188 186 187 189 191 191 191 192 193 195 197 198 201 207 212 216 215 201 185 180 183 191 192 190 192 195 193 191 192 195 199 201 199 201 206 211 213 216 220 224 226 229 233 238 245 254 258 254 243 230 221 220 220 221 226 246 10 25 36 61 86 95 92 85 75 62 49 36 30 32 39 43
Height
773 776 778 781 784 786 789 791 794 796 798 800 802 804 806 808 811 813 814 816 817 819 820 822 823 824 826 827 828 830 831 833 834 833 833 834 836 837 839 841 843 844 846 847 847 848 847 848 849 851 852 852 853 854 854 855 856 857 858 858 858 859 859 860 862 864 866 867 867 866 865 864 862 861 859 857 856 855 854 854 853 851 849 848 847
772 774 777 780 783 785 788 791 793 796 798 800 802 804 806 808 810 812 814 815 817 818 820 821 823 824 825 827 828 830 831 833 833 833 833 834 836 838 840 842 844 845 846 847 848 848 848 849 850 852 853 853 854 855 855 857 857 858 858 859 859 859 860 861 862 864 866 867 866 865 864 863 862 861 859 857 857 856 854 853 852 851 849 848 847
771 773 776 780 782 785 788 790 793 795 797 799 801 803 805 807 809 811 813 815 816 818 820 821 823 823 825 826 828 830 831 833 833 833 834 835 836 838 840 842 844 845 846 847 848 848 848 850 851 852 853 854 854 856 856 857 858 858 859 859 859 860 861 861 862 864 866 866 866 865 864 863 862 861 860 858 857 856 854 853 852 851 849 848 847
770 772 775 779 781 784 786 789 792 794 796 798 800 803 805 806 809 810 812 814 816 818 820 821 822 823 825 826 828 830 831 832 833 834 835 835 836 838 841 843 844 846 847 847 847 848 849 850 852 853 853 854 855 856 857 858 858 859 860 860 860 861 861 862 862 864 865 866 866 865 865 864 863 861 860 858 857 856 854 853 852 851 849 849 848
768 771 774 778 780 783 785 788 791 793 795 797 799 802 804 806 808 810 812 814 815 818 819 821 822 823 825 826 828 829 831 832 833 834 835 836 837 839 841 843 845 846 847 847 847 848 849 850 851 852 853 854 855 856 857 858 859 859 860 860 861 861 862 862 863 863 864 865 866 865 865 864 863 861 860 858 856 855 853 853 852 851 850 849 848
767 770 773 776 779 781 784 787 789 791 794 796 798 801 803 805 807 809 811 813 815 817 819 820 821 823 825 826 827 829 830 832 833 833 835 836 838 839 841 843 845 846 847 847 848 848 849 850 852 852 853 854 855 856 857 858 859 860 860 861 861 862 862 862 863 863 864 865 865 865 864 863 862 862 861 859 857 855 854 853 852 851 850 849 848
765 769 772 775 777 780 782 786 788 790 793 795 798 800 802 804 806 808 810 812 814 816 818 819 821 823 825 826 827 829 830 831 833 834 835 836 837 839 841 842 844 845 846 847 848 849 850 851 852 853 854 855 855 856 857 858 859 859 860 861 861 862 862 862 863 863 864 864 865 864 864 863 862 862 861 860 858 856 855 854 852 851 851 850 848
764 768 771 773 776 778 781 785 787 789 792 795 797 800 801 804 806 808 810 812 813 815 817 819 821 823 824 826 827 829 830 831 832 833 834 836 837 839 840 842 843 845 846 847 848 849 850 852 853 853 854 855 856 856 857 857 858 859 860 861 861 861 862 862 863 863 864 864 864 864 864 863 862 862 861 859 857 856 855 855 853 852 851 850 849
763 766 769 772 774 777 780 784 786 788 791 794 796 799 801 803 805 807 809 811 813 815 816 818 820 822 824 825 827 828 829 830 832 833 834 835 837 838 839 841 842 844 845 847 848 850 851 852 853 854 854 855 856 856 856 857 857 857 859 860 861 862 862 863 863 863 864 864 864 864 864 863 862 862 861 859 858 857 856 855 854 853 852 850 849
761 764 768 770 773 776 779 782 785 787 790 793 795 798 800 802 804 806 808 811 812 814 816 818 820 821 823 824 826 827 829 830 831 833 834 835 837 838 839 840 842 843 845 846 848 849 851 852 853 854 855 856 857 857 857 857 857 857 858 860 861 862 862 863 863 864 864 864 864 864 863 863 862 862 861 860 859 858 856 855 854 853 852 850 848
760 763 766 769 772 775 778 781 784 787 789 792 794 797 799 801 804 806 808 810 812 814 816 818 819 821 822 824 825 827 828 830 832 833 834 835 836 837 838 840 841 843 844 845 847 848 849 850 851 853 854 856 857 857 857 858 858 857 858 859 860 861 862 863 863 864 864 864 863 863 863 863 862 862 861 860 859 857 856 855 854 853 851 850 849
759 762 765 769 771 774 777 780 783 786 788 791 794 796 799 801 803 806 807 809 811 813 815 817 819 820 822 823 825 826 828 830 832 833 834 835 836 837 838 839 841 843 844 845 846 847 848 849 850 852 854 855 856 857 857 858 858 858 858 858 859 861 862 862 863 863 863 863 863 863 862 862 862 861 861 860 859 857 856 854 853 853 852 851 849
758 761 764 768 770 773 776 779 782 785 787 790 793 796 799 801 802 804 806 809 811 812 814 816 818 819 821 823 824 826 828 830 831 833 834 835 836 837 838 839 840 842 843 844 846 846 847 848 850 852 853 855 856 856 857 857 858 858 857 858 859 860 861 862 862 862 862 862 862 861 861 862 861 861 860 860 859 857 855 854 853 853 852 851 849
757 760 763 767 769 772 775 778 781 784 787 790 793 795 798 799 801 803 805 807 809 811 813 815 817 818 820 822 824 826 827 829 831 833 834 835 836 837 838 839 840 842 843 844 845 845 846 847 849 850 852 853 855 856 856 857 858 858 857 857 858 859 860 861 861 861 861 861 861 860 860 860 860 860 860 860 859 857 855 854 853 853 852 851 849
756 759 763 766 768 771 774 777 780 783 786 789 792 794 796 798 800 801 803 805 807 809 811 813 815 817 819 821 823 825 827 829 831 832 833 834 835 836 837 838 840 841 842 844 845 845 846 847 848 849 850 852 853 855 856 857 857 858 857 856 857 858 858 859 860 860 860 860 860 859 859 859 859 859 859 858 858 856 855 854 853 852 851 850 848
755 759 762 765 768 770 773 776 779 782 785 788 790 793 795 796 798 800 802 805 807 809 811 812 814 816 819 821 823 824 826 828 829 831 832 833 834 836 837 839 840 841 843 844 846 847 847 848 849 849 850 851 853 854 855 856 857 857 856 856 856 856 857 858 859 859 859 859 859 858 858 858 858 858 858 857 857 856 854 853 852 851 850 849 848
755 758 762 765 767 769 772 775 778 781 784 787 789 791 793 795 797 799 802 804 807 809 811 812 814 815 817 819 821 822 824 826 827 829 830 832 833 835 836 838 840 841 843 845 846 847 848 849 849 849 850 851 852 853 854 855 856 856 856 855 855 856 856 857 857 858 858 858 858 858 857 857 857 857 857 856 856 855 854 852 851 850 849 849 848
754 757 761 764 766 769 771 774 777 780 783 785 787 789 791 794 796 798 801 803 806 809 810 812 814 815 816 817 818 820 821 823 825 827 828 830 832 833 835 837 838 840 842 844 846 848 849 850 850 849 849 850 851 852 853 854 855 855 855 855 855 855 855 856 856 856 857 857 857 857 856 856 856 856 856 855 855 854 853 851 850 849 849 848 847
752 756 760 763 766 769 771 774 776 779 782 784 786 788 790 793 795 798 800 802 805 808 810 811 813 814 815 816 817 818 820 821 824 826 828 830 831 832 835 836 837 839 841 843 845 846 848 849 849 849 849 849 850 851 851 852 853 854 854 854 854 854 855 855 855 855 856 856 856 855 855 855 855 855 855 854 854 853 852 851 850 849 848 847 846
751 755 759 762 766 768 770 773 775 778 781 783 786 788 791 793 796 798 800 802 805 807 809 811 812 813 815 816 817 818 819 821 823 824 827 829 830 831 833 834 835 837 839 840 842 842 844 845 847 847 848 848 849 850 850 851 852 853 853 853 853 854 854 854 854 854 855 855 855 855 854 855 854 854 854 854 853 852 851 850 849 848 847 846 845
751 755 758 761 765 767 769 772 774 777 780 784 786 789 791 793 795 797 800 802 804 806 809 810 812 813 814 815 816 818 819 820 821 823 825 827 828 829 830 831 833 834 836 838 839 840 841 842 844 845 846 846 847 848 849 849 851 852 852 853 853 853 853 853 853 853 854 854 854 854 853 854 854 854 853 853 853 852 850 849 848 847 846 845 844
751 754 757 760 763 766 768 771 773 776 780 783 786 788 790 793 795 797 799 801 803 805 807 809 810 811 813 814 816 817 818 819 820 822 824 826 827 828 829 830 831 832 834 836 837 838 840 841 842 843 844 845 846 847 847 848 849 850 851 852 852 852 852 852 852 852 853 853 853 853 852 852 853 853 853 852 852 851 850 849 848 847 846 845 844
750 753 756 759 762 765 768 770 773 776 779 782 785 787 790 793 795 796 798 800 802 804 806 807 808 810 812 813 815 816 817 819 820 821 823 825 826 827 828 829 830 831 832 834 836 837 839 840 841 842 843 844 845 846 846 847 847 848 850 851 851 851 851 851 851 851 852 852 852 852 852 852 852 852 852 852 851 850 849 848 847 846 845 844 843
749 752 755 758 761 764 767 770 773 775 778 781 784 787 789 792 794 796 798 799 800 802 804 805 807 808 810 812 813 815 817 819 820 821 822 824 825 827 828 830 831 831 833 834 836 837 839 840 841 842 842 843 844 844 845 846 847 848 849 850 850 850 850 850 850 850 851 851 851 851 851 851 851 851 851 850 850 849 848 847 846 845 844 843 842
748 751 754 757 760 763 767 770 772 774 777 780 782 785 788 790 793 795 797 798 799 801 803 804 805 807 809 810 812 814 816 818 819 821 822 823 825 826 827 829 830 832 833 834 836 837 838 839 840 841 841 842 842 843 844 845 845 846 848 849 849 849 849 849 849 849 849 850 850 850 850 850 850 850 849 849 848 848 847 846 845 844 843 842 841
747 750 754 757 760 763 766 769 771 774 777 779 781 784 786 788 791 793 795 797 798 800 802 804 805 807 808 809 811 813 814 816 817 819 821 822 823 825 826 827 829 830 832 833 835 836 836 838 839 839 840 841 842 842 843 844 844 845 846 847 847 847 848 848 848 848 848 849 849 849 849 849 849 849 848 848 847 846 846 845 844 843 842 840 839
747 750 754 757 760 762 764 767 770 773 776 778 781 783 785 788 790 791 793 795 797 798 800 802 804 805 807 808 809 811 812 814 816 817 818 820 821 823 825 826 827 828 830 832 833 834 835 836 837 837 838 839 841 842 843 843 844 845 845 846 846 846 846 846 846 847 847 847 848 847 847 847 847 847 847 846 846 845 844 843 842 841 840 839 838
747 750 753 756 759 761 763 766 769 772 774 777 779 781 783 785 787 788 789 791 792 794 796 798 800 802 804 806 808 810 812 813 813 814 815 817 818 820 822 824 825 827 828 830 831 832 833 834 835 836 837 838 839 841 842 843 843 843 844 844 845 845 845 845 845 845 845 845 845 845 845 845 845 845 845 844 844 843 843 842 841 840 839 838 836
748 750 753 756 759 761 763 766 768 770 773 775 777 779 781 783 784 786 787 788 790 791 793 795 797 800 802 804 805 808 810 810 810 812 813 815 816 817 818 820 822 825 827 828 830 831 832 832 833 834 835 836 838 839 840 840 840 841 841 841 842 843 843 843 843 843 843 843 842 842 842 842 842 842 842 842 841 841 841 840 839 838 837 836 835
748 751 754 756 759 761 763 766 768 769 771 773 776 779 781 782 784 785 786 788 790 791 793 795 797 799 801 802 803 805 807 808 809 811 812 813 814 815 816 818 821 823 825 827 828 830 831 831 832 833 834 835 835 836 836 837 837 838 838 838 838 839 839 840 840 840 840 840 839 838 838 838 838 839 839 839 839 839 839 838 837 836 835 834 833
748 751 753 756 758 760 762 765 767 769 771 772 774 777 779 781 783 785 786 788 790 792 793 795 797 798 800 801 803 805 806 808 809 810 811 812 813 814 815 817 820 822 824 825 827 829 830 830 831 832 832 833 834 834 835 835 835 835 835 834 835 836 837 837 837 837 837 837 836 836 836 836 836 836 836 837 837 837 836 836 835 834 833 832 831
747 750 753 755 757 759 762 764 766 768 770 772 774 776 778 780 782 784 786 788 789 791 793 795 797 798 799 801 802 804 805 806 808 808 809 811 812 812 814 815 818 820 823 824 826 827 828 829 829 830 831 831 832 833 834 834 834 834 833 832 833 834 834 835 835 835 835 834 834 834 834 834 834 834 834 834 834 834 834 834 833 832 831 830 829
747 750 752 755 757 759 761 763 765 767 769 770 773 774 776 777 779 782 784 787 789 791 793 794 796 798 799 800 801 803 804 805 806 807 808 809 810 811 812 814 816 819 821 822 824 825 827 827 828 828 829 830 830 831 832 832 832 832 832 831 831 831 832 832 832 832 832 831 831 831 831 832 832 832 832 832 832 832 832 832 831 831 829 828 827
747 749 751 753 756 758 760 762 765 767 768 770 771 773 775 776 778 780 782 785 787 789 791 793 795 796 797 799 800 801 803 803 804 806 807 808 809 810 811 813 816 818 820 821 823 824 826 826 827 828 828 828 829 830 830 831 831 832 831 830 830 829 829 829 829 829 829 829 829 829 830 830 830 830 830 831 831 830 830 830 830 829 827 826 825
747 748 750 752 755 757 760 762 764 766 768 769 771 772 774 776 777 779 780 781 784 786 789 792 793 794 796 797 799 800 801 802 803 804 805 807 808 809 811 813 814 817 819 820 821 823 824 824 825 826 826 827 828 828 829 830 831 831 830 830 829 828 827 826 826 827 827 828 828 828 828 828 828 829 829 829 829 829 829 828 828 827 826 825 824
746 748 750 752 754 757 759 761 763 764 766 768 770 772 774 775 777 779 780 781 784 786 789 791 793 794 795 796 797 798 799 800 802 803 804 805 807 808 809 810 812 814 816 818 819 820 821 822 822 823 824 825 826 827 828 829 830 830 830 829 828 826 825 824 824 825 826 826 826 827 827 827 827 828 828 828 828 828 827 827 826 825 824 823 823
745 747 749 751 753 755 757 760 762 764 766 768 770 771 773 775 778 780 781 783 786 788 790 792 793 795 795 796 797 798 799 800 801 802 803 805 805 806 807 808 810 812 814 815 817 818 819 820 821 821 822 824 825 826 827 828 828 829 828 828 827 825 823 823 823 824 825 825 826 826 827 827 827 827 827 827 827 827 826 825 824 823 823 822 822
744 746 748 751 753 755 757 759 761 763 765 767 769 771 773 775 778 780 781 783 785 787 789 791 793 794 794 795 796 797 798 799 800 801 802 803 804 805 806 807 809 811 812 814 816 817 817 818 819 821 822 823 824 825 826 826 826 827 827 827 826 825 823 823 823 824 825 825 826 826 827 827 827 826 826 826 825 825 824 824 823 823 822 821 821
745 747 748 750 752 754 756 758 760 762 764 766 768 770 772 774 776 778 780 781 783 784 786 788 791 792 793 794 796 796 797 798 798 799 800 802 803 804 806 807 808 810 811 813 815 816 817 818 819 820 821 822 823 824 824 824 824 825 825 826 826 825 824 823 823 824 825 825 826 826 826 826 826 825 825 825 824 824 824 823 822 822 821 820 820
746 748 749 750 751 753 755 757 759 761 763 765 766 768 770 772 774 776 778 780 781 782 784 787 789 790 792 794 795 795 796 797 797 798 799 800 802 803 805 806 808 809 811 812 814 815 816 817 819 820 821 822 822 822 822 822 822 822 823 824 825 825 824 824 824 824 825 825 825 825 825 825 825 824 824 824 824 823 823 822 822 821 820 819 818
746 749 750 751 752 753 754 756 758 759 761 763 764 766 768 770 772 775 777 778 780 781 783 785 787 789 791 793 794 794 795 796 797 798 799 800 801 803 804 806 808 809 811 812 813 814 816 817 818 819 820 821 821 821 820 819 819 820 821 823 824 824 824 824 824 824 824 824 824 824 824 824 824 823 823 823 823 822 822 821 821 820 819 818 817
746 748 749 750 751 752 753 755 757 759 761 762 764 766 767 769 771 774 775 777 778 780 782 785 787 789 791 792 793 794 795 796 797 798 799 800 801 803 804 806 807 809 811 812 813 814 815 816 817 818 819 820 820 819 818 818 818 819 820 822 823 823 823 823 824 823 823 823 823 823 823 823 823 822 822 822 821 821 821 820 819 819 818 817 816
745 747 748 750 751 752 753 755 757 759 761 762 763 765 767 768 771 773 774 776 778 780 782 784 786 788 789 791 792 794 795 796 797 798 799 800 801 803 804 806 807 809 810 811 812 814 815 816 817 818 818 818 819 818 818 818 818 819 821 822 822 822 822 822 823 823 822 822 822 822 822 822 822 821 821 820 820 820 819 819 818 818 817 816 815
744 746 748 749 751 752 754 755 757 758 760 761 763 765 766 768 770 772 774 775 777 779 781 783 784 786 788 790 791 793 794 795 796 797 799 800 801 803 804 806 807 808 809 810 811 813 814 815 816 817 817 817 818 818 818 818 819 820 820 821 821 821 821 821 821 821 821 821 821 821 821 821 820 820 820 819 819 819 818 818 817 817 816 815 815
744 746 747 748 750 752 753 755 756 758 759 761 763 764 766 768 769 771 773 775 776 778 780 782 784 785 786 788 790 791 792 794 795 796 798 800 801 802 804 805 806 807 809 810 811 812 813 814 815 815 816 816 817 817 818 818 819 819 820 820 820 820 820 820 820 820 820 820 820 820 820 819 819 819 818 818 818 818 817 817 817 816 815 815 814
744 746 747 748 749 751 752 754 756 757 759 760 762 763 765 767 768 770 772 774 775 777 779 781 783 784 785 787 788 790 791 793 794 795 797 799 800 801 802 804 805 807 808 809 810 811 811 812 813 813 814 816 816 817 817 817 818 818 818 819 819 819 819 819 819 819 819 819 819 819 818 818 818 818 818 817 817 817 816 816 816 815 815 814 814
745 746 747 748 749 751 752 754 755 757 758 760 761 763 764 766 768 770 772 773 775 776 778 780 782 784 785 786 787 788 790 791 793 794 796 797 798 800 801 803 804 806 807 808 809 809 810 811 812 812 814 815 815 816 816 817 817 817 817 818 818 818 818 818 818 818 818 818 818 818 818 817 817 817 817 817 817 816 816 816 816 815 815 814 814
745 746 747 748 750 751 752 754 755 757 758 759 761 762 764 765 767 769 771 772 774 776 777 779 781 783 784 785 786 787 789 790 792 793 795 796 797 799 801 802 804 805 806 807 808 808 809 810 811 812 813 814 815 815 816 816 816 816 817 817 817 817 817 817 817 817 817 817 817 817 817 816 816 816 816 816 816 816 816 816 815 815 815 814 814
745 746 747 748 749 751 752 753 755 756 757 759 761 762 764 765 767 768 770 771 773 775 777 778 780 782 783 784 785 786 788 789 791 793 794 795 797 799 800 802 803 804 805 806 807 808 809 810 811 812 813 813 814 814 815 815 815 816 816 816 817 817 817 817 817 817 817 817 816 816 816 816 816 816 816 816 816 816 815 815 815 815 815 814 813
744 745 747 748 749 750 751 753 754 755 757 758 760 761 763 765 766 768 769 771 773 774 776 778 779 781 782 783 785 786 787 789 790 792 794 795 797 798 800 801 802 803 804 805 807 808 809 810 810 811 812 813 813 814 814 814 815 815 815 816 816 816 816 816 816 816 816 816 816 816 816 816 816 816 816 816 816 815 815 815 815 815 814 814 813
744 745 746 747 748 750 751 752 753 755 756 758 759 761 763 764 766 767 769 770 772 774 775 777 779 780 782 783 784 785 787 788 790 792 794 795 796 798 799 800 801 802 804 805 806 807 808 809 810 810 811 812 812 813 813 814 814 815 815 815 815 815 816 816 816 816 816 816 816 816 816 816 816 815 815 815 815 815 815 815 815 814 814 814 813